Weather History for Wheeler AAF, HI

Change the Weather History Date:

Tuesday, February 25, 2014

  Actual Average Record
Temperature  
Mean Temperature 66 °F -  
Max Temperature 72 °F 74 °F 78 °F (1998)
Min Temperature 60 °F 61 °F 59 °F (1999)
Cooling Degree Days 1    
Growing Degree Days 16 (Base 50)    
Moisture  
Dew Point 61 °F    
Average Humidity 84    
Maximum Humidity 95    
Minimum Humidity 63    
Precipitation  
Precipitation 0.09 in - - ()
Sea Level Pressure  
Sea Level Pressure 29.93 in    
Wind  
Wind Speed 7 mph (NNW)    
Max Wind Speed 16 mph    
Max Gust Speed 20 mph    
Visibility 9 miles    
Events Rain    
Averages and records for this station are not official NWS values.
T = Trace of Precipitation, MM = Missing Value Source: NWS Daily Summary

Daily Weather History Graph

Daily Weather History Graph

Search for Another Location

Airport:

Trip Planner

Search our weather history database for the weather conditions in past years. The results will help you decide how hot, cold, wet, or windy it might be!

Date:

Astronomy

Feb. 25, 2014 Rise Set
Actual Time 6:55 AM HST 6:34 PM HST
Civil Twilight 6:33 AM HST 6:57 PM HST
Nautical Twilight 6:07 AM HST 7:23 PM HST
Astronomical Twilight 5:41 AM HST 7:49 PM HST
Moon 3:41 AM HST (2/25) 3:11 PM HST (2/25)
Length of Visible Light 12h 23m
Length of Day
11h 39m
Waning Crescent, 16% of the Moon is Illuminated
Feb 25
Waning Crescent
Feb 28
New
Mar 8
First Quarter
Mar 16
Full
Mar 23
Last Quarter

Hourly Weather History & Observations

Time (HST) Temp. Dew Point Humidity Pressure Visibility Wind Dir Wind Speed Gust Speed Precip Events Conditions
12:18 AM 64.4 °F 59.0 °F 83% 29.95 in 10.0 mi NNW 4.6 mph - N/A   Mostly Cloudy
12:53 AM 64.4 °F 60.8 °F 88% 29.94 in 10.0 mi North 5.8 mph - N/A   Overcast
12:58 AM 64.0 °F 59.9 °F 86% 29.92 in 10.0 mi North 4.6 mph - N/A   Mostly Cloudy
1:58 AM 62.6 °F 59.4 °F 89% 29.90 in 10.0 mi WNW 4.6 mph - N/A   Clear
2:58 AM 60.8 °F 59.0 °F 94% 29.88 in 10.0 mi Calm Calm - N/A   Mostly Cloudy
3:22 AM 64.4 °F 60.8 °F 88% 29.90 in 10.0 mi North 4.6 mph - N/A   Light Drizzle
3:42 AM 64.4 °F 62.6 °F 94% 29.91 in 2.5 mi NW 4.6 mph - N/A Rain Light Rain
3:47 AM 64.4 °F 62.6 °F 94% 29.91 in 2.5 mi NW 4.6 mph - N/A Rain Light Rain
3:52 AM 64.4 °F 62.6 °F 94% 29.91 in 3.0 mi North 3.5 mph - N/A Rain Light Rain
3:58 AM 63.9 °F 61.9 °F 93% 29.89 in 6.0 mi NNW 4.6 mph - 0.02 in   Light Drizzle
4:02 AM 64.4 °F 62.6 °F 94% 29.91 in 10.0 mi NNW 5.8 mph - N/A   Overcast
4:12 AM 64.4 °F 62.6 °F 94% 29.90 in 10.0 mi North 5.8 mph - N/A   Light Drizzle
4:17 AM 64.4 °F 62.6 °F 94% 29.90 in 10.0 mi NNW 5.8 mph - N/A   Light Drizzle
4:22 AM 64.4 °F 62.6 °F 94% 29.90 in 8.0 mi North 4.6 mph - N/A   Drizzle
4:47 AM 64.4 °F 62.6 °F 94% 29.90 in 9.0 mi NNW 6.9 mph - N/A   Light Drizzle
4:52 AM 64.4 °F 62.6 °F 94% 29.90 in 9.0 mi NNW 8.1 mph - N/A   Light Drizzle
4:53 AM 64.4 °F 62.6 °F 94% 29.90 in 9.0 mi North 6.9 mph - N/A   Overcast
4:54 AM 64.4 °F 62.6 °F 94% 29.90 in 9.0 mi North 6.9 mph - N/A   Light Drizzle
4:58 AM 64.4 °F 63.0 °F 95% 29.88 in 10.0 mi North 5.8 mph - 0.00 in   Light Drizzle
5:13 AM 64.4 °F 62.6 °F 94% 29.91 in 5.0 mi NNW 10.4 mph - N/A Rain Heavy Rain
5:18 AM 64.4 °F 62.6 °F 94% 29.91 in 4.0 mi NNW 9.2 mph - N/A Rain Heavy Rain
5:43 AM 64.4 °F 62.6 °F 94% 29.91 in 4.0 mi NNW 6.9 mph - N/A   Light Drizzle
5:52 AM 64.4 °F 62.6 °F 94% 29.92 in 9.0 mi NNW 8.1 mph - N/A   Overcast
5:56 AM 64.4 °F 62.6 °F 94% 29.92 in 10.0 mi NW 8.1 mph - N/A   Light Drizzle
5:58 AM 64.4 °F 62.6 °F 94% 29.90 in 10.0 mi NNW 9.2 mph - 0.03 in   Light Drizzle
6:30 AM 64.4 °F 62.6 °F 94% 29.93 in 10.0 mi NNW 6.9 mph - N/A   Overcast
6:34 AM 64.4 °F 62.6 °F 94% 29.93 in 10.0 mi NNW 8.1 mph - N/A   Light Drizzle
6:49 AM 64.4 °F 62.6 °F 94% 29.94 in 4.0 mi NNW 6.9 mph - N/A Rain Heavy Rain
6:58 AM 64.6 °F 63.1 °F 95% 29.93 in 4.0 mi NNW 8.1 mph - 0.03 in Rain Light Rain
7:14 AM 64.4 °F 62.6 °F 94% 29.95 in 4.0 mi NNW 10.4 mph - N/A   Overcast
7:16 AM 64.4 °F 62.6 °F 94% 29.95 in 4.0 mi NNW 9.2 mph - N/A   Light Drizzle
7:34 AM 64.4 °F 62.6 °F 94% 29.96 in 10.0 mi NNW 6.9 mph - N/A   Mostly Cloudy
7:39 AM 64.4 °F 62.6 °F 94% 29.96 in 10.0 mi North 4.6 mph - N/A   Scattered Clouds
7:58 AM 64.6 °F 62.8 °F 94% 29.95 in 10.0 mi NNW 6.9 mph - 0.01 in   Partly Cloudy
8:58 AM 65.8 °F 62.6 °F 89% 29.97 in 10.0 mi NNW 11.5 mph - N/A   Partly Cloudy
9:58 AM 68.0 °F 61.7 °F 80% 29.97 in 10.0 mi NNW 13.8 mph 19.6 mph N/A   Scattered Clouds
10:58 AM 70.2 °F 59.7 °F 69% 29.97 in 10.0 mi NNW 12.7 mph 19.6 mph N/A   Partly Cloudy
11:18 AM 69.8 °F 60.8 °F 73% 29.99 in 10.0 mi NNW 13.8 mph - N/A   Mostly Cloudy
11:23 AM 69.8 °F 60.8 °F 73% 29.99 in 10.0 mi NNW 12.7 mph - N/A   Mostly Cloudy
11:28 AM 69.8 °F 59.0 °F 68% 29.99 in 10.0 mi NNW 12.7 mph 18.4 mph N/A   Overcast
11:38 AM 69.8 °F 59.0 °F 68% 29.98 in 10.0 mi NW 13.8 mph 18.4 mph N/A   Mostly Cloudy
11:58 AM 71.6 °F 60.3 °F 67% 29.95 in 10.0 mi NW 8.1 mph 17.3 mph N/A   Overcast
12:47 PM 71.6 °F 59.0 °F 64% 29.95 in 10.0 mi NW 13.8 mph - N/A   Mostly Cloudy
12:58 PM 72.0 °F 59.9 °F 66% 29.94 in 10.0 mi North 16.1 mph 19.6 mph N/A   Scattered Clouds
1:58 PM 72.5 °F 59.9 °F 64% 29.90 in 10.0 mi NNW 15.0 mph 19.6 mph N/A   Mostly Cloudy
2:58 PM 71.1 °F 58.1 °F 63% 29.90 in 10.0 mi NNW 10.4 mph - N/A   Overcast
3:58 PM 70.3 °F 58.5 °F 66% 29.88 in 10.0 mi NNW 12.7 mph - N/A   Overcast
4:58 PM 70.0 °F 58.3 °F 66% 29.88 in 10.0 mi NNW 10.4 mph - N/A   Overcast
5:58 PM 68.7 °F 58.1 °F 69% 29.91 in 10.0 mi NNW 11.5 mph - N/A   Mostly Cloudy
6:58 PM 66.9 °F 58.5 °F 74% 29.91 in 10.0 mi NNW 8.1 mph - N/A   Clear
7:58 PM 65.7 °F 59.0 °F 79% 29.93 in 10.0 mi Variable 6.9 mph - N/A   Mostly Cloudy
8:58 PM 65.7 °F 58.8 °F 79% 29.96 in 10.0 mi North 6.9 mph - N/A   Overcast
9:28 PM 66.2 °F 59.0 °F 78% 29.98 in 10.0 mi NNW 3.5 mph - N/A   Overcast
9:53 PM 66.2 °F 59.0 °F 78% 29.98 in 10.0 mi Variable 3.5 mph - N/A   Overcast
9:58 PM 65.7 °F 58.6 °F 78% 29.97 in 10.0 mi Variable 3.5 mph - N/A   Overcast
10:08 PM 66.2 °F 59.0 °F 78% 29.99 in 10.0 mi Variable 2.3 mph - N/A   Overcast
10:18 PM 66.2 °F 59.0 °F 78% 29.99 in 10.0 mi Variable 1.2 mph - N/A   Overcast
10:28 PM 66.2 °F 59.0 °F 78% 29.99 in 10.0 mi Variable 3.5 mph - N/A   Overcast
10:33 PM 66.2 °F 59.0 °F 78% 29.98 in 10.0 mi Variable 2.3 mph - N/A   Overcast
10:53 PM 66.2 °F 59.0 °F 78% 29.99 in 10.0 mi NNW 3.5 mph - N/A   Overcast
10:58 PM 65.5 °F 58.6 °F 79% 29.96 in 10.0 mi NNW 3.5 mph - N/A   Overcast
11:58 PM 65.3 °F 58.5 °F 78% 29.97 in 10.0 mi NNW 3.5 mph - N/A   Overcast